This is the latest recevied weather packets stored in our database for station/object KQ4WWD. If no packets are shown the sender has not sent any weather packets the latest 10 day(s).
| Time | Temp. | Humidity | Pressure | Rain* | Wind** | Luminosity | Snow |
|---|---|---|---|---|---|---|---|
| 1777646387 | 27.78° C | 70% | 1012.3 hPa | 0 mm | - | 635 W/m² | - |
| 1777646083 | 27.78° C | 69% | 1012.1 hPa | 0 mm | - | 386 W/m² | - |
| 1777645779 | 27.22° C | 72% | 1012.2 hPa | 0 mm | - | 641 W/m² | - |
| 1777645477 | 27.22° C | 71% | 1012.6 hPa | 0 mm | - | 559 W/m² | - |
| 1777645172 | 27.22° C | 71% | 1012.3 hPa | 0 mm | - | 529 W/m² | - |
| 1777644869 | 27.22° C | 70% | 1012.2 hPa | 0 mm | - | 579 W/m² | - |
| 1777644567 | 27.22° C | 73% | 1012.2 hPa | 0 mm | - | 555 W/m² | - |
| 1777644262 | 26.67° C | 72% | 1012.2 hPa | 0 mm | - | 544 W/m² | - |
| 1777643959 | 26.67° C | 75% | 1012.2 hPa | 0 mm | - | 560 W/m² | - |
| 1777643657 | 26.67° C | 76% | 1012.1 hPa | 0 mm | - | 535 W/m² | - |
| 1777643354 | 26.11° C | 76% | 1012 hPa | 0 mm | - | 537 W/m² | - |
| 1777643050 | 26.11° C | 79% | 1011.8 hPa | 0 mm | - | 483 W/m² | - |
| 1777642746 | 25.56° C | 78% | 1011.9 hPa | 0 mm | - | 511 W/m² | - |
| 1777642444 | 25.56° C | 79% | 1011.8 hPa | 0 mm | - | 435 W/m² | - |
| 1777642140 | 25.56° C | 81% | 1012 hPa | 0 mm | - | 191 W/m² | - |
| 1777641836 | 25.56° C | 82% | 1012.1 hPa | 0 mm | - | 276 W/m² | - |
| 1777641532 | 25.56° C | 82% | 1012.1 hPa | 0 mm | - | 247 W/m² | - |
| 1777641226 | 25° C | 83% | 1012 hPa | 0 mm | - | 256 W/m² | - |
| 1777640924 | 25° C | 83% | 1012.1 hPa | 0 mm | - | 192 W/m² | - |
| 1777640621 | 25° C | 84% | 1012.1 hPa | 0 mm | - | 361 W/m² | - |
| 1777640316 | 24.44° C | 85% | 1012.1 hPa | 0 mm | - | 234 W/m² | - |
| 1777640013 | 24.44° C | 85% | 1011.9 hPa | 0 mm | - | 203 W/m² | - |
| 1777639711 | 24.44° C | 86% | 1012.1 hPa | 0 mm | - | 184 W/m² | - |
| 1777639409 | 23.89° C | 87% | 1011.8 hPa | 0 mm | - | 264 W/m² | - |
| 1777639108 | 23.89° C | 88% | 1012.1 hPa | 0 mm | - | 202 W/m² | - |
* Rain latest hour (hover to see other rain measurements)
** Current wind speed in m/s (hover to see current wind gust speed)